Total_Precipitation_Accumulation
0.04 0.05 0.06 0.05 0.05 0.05 0.05 0.07 0.09 0.07 0.03 0.02 0.03 0.07 0.12 0.14 0.14 0.11 0.06 0.05 0.06 0.07 0.11 0.13 0.12 0.14 0.20 0.32 0.55 0.86 1.04 0.87 0.58 0.38 0.23 0.14 0.07 0.03
0.05 0.06 0.05 0.05 0.05 0.06 0.06 0.06 0.08 0.09 0.06 0.03 0.03 0.07 0.17 0.19 0.16 0.13 0.11 0.08 0.06 0.05 0.05 0.08 0.12 0.15 0.19 0.25 0.33 0.48 0.74 0.92 0.94 0.74 0.42 0.26 0.16 0.08
0.04 0.06 0.06 0.07 0.09 0.09 0.10 0.11 0.10 0.10 0.08 0.04 0.03 0.05 0.15 0.21 0.20 0.14 0.12 0.10 0.07 0.06 0.05 0.05 0.08 0.14 0.22 0.29 0.30 0.32 0.38 0.52 0.73 0.83 0.70 0.45 0.25 0.13
0.05 0.08 0.09 0.11 0.13 0.12 0.13 0.14 0.13 0.13 0.11 0.06 0.04 0.05 0.10 0.18 0.25 0.24 0.18 0.14 0.10 0.08 0.08 0.07 0.10 0.13 0.17 0.25 0.34 0.37 0.35 0.36 0.46 0.58 0.65 0.57 0.39 0.23
0.09 0.11 0.13 0.15 0.15 0.14 0.17 0.16 0.14 0.13 0.13 0.10 0.05 0.05 0.09 0.12 0.22 0.31 0.24 0.18 0.14 0.11 0.09 0.09 0.12 0.15 0.14 0.16 0.23 0.33 0.33 0.30 0.31 0.43 0.51 0.46 0.36 0.29
0.07 0.08 0.15 0.24 0.21 0.19 0.18 0.14 0.13 0.12 0.12 0.12 0.07 0.05 0.08 0.10 0.18 0.27 0.28 0.23 0.17 0.13 0.11 0.09 0.11 0.17 0.16 0.11 0.10 0.16 0.26 0.33 0.33 0.35 0.36 0.32 0.28 0.22
0.04 0.05 0.14 0.24 0.22 0.26 0.24 0.16 0.12 0.11 0.12 0.13 0.11 0.09 0.10 0.13 0.16 0.19 0.25 0.27 0.20 0.14 0.11 0.08 0.08 0.09 0.13 0.14 0.12 0.12 0.16 0.21 0.26 0.28 0.27 0.25 0.23 0.19
0.05 0.05 0.09 0.18 0.15 0.16 0.20 0.20 0.18 0.15 0.12 0.12 0.15 0.16 0.16 0.16 0.17 0.21 0.22 0.22 0.20 0.17 0.12 0.10 0.09 0.10 0.09 0.10 0.14 0.13 0.13 0.16 0.20 0.21 0.22 0.21 0.19 0.16
0.06 0.05 0.07 0.14 0.12 0.10 0.14 0.14 0.14 0.17 0.20 0.18 0.22 0.23 0.21 0.20 0.20 0.23 0.22 0.19 0.16 0.20 0.17 0.15 0.12 0.10 0.09 0.15 0.20 0.17 0.14 0.14 0.16 0.18 0.18 0.17 0.16 0.12
0.04 0.05 0.04 0.08 0.11 0.06 0.09 0.12 0.15 0.21 0.29 0.29 0.36 0.38 0.29 0.23 0.22 0.29 0.29 0.21 0.16 0.17 0.18 0.20 0.21 0.16 0.18 0.20 0.24 0.21 0.16 0.13 0.12 0.14 0.15 0.13 0.11 0.09
0.02 0.03 0.03 0.03 0.06 0.02 0.02 0.06 0.08 0.13 0.19 0.23 0.28 0.34 0.33 0.34 0.36 0.40 0.44 0.33 0.27 0.24 0.22 0.25 0.34 0.29 0.35 0.42 0.35 0.26 0.19 0.15 0.11 0.10 0.10 0.09 0.07 0.06
0.01 0.01 0.03 0.03 0.03 0.02 0.00 0.01 0.03 0.06 0.10 0.12 0.16 0.24 0.31 0.36 0.44 0.56 0.69 0.56 0.39 0.38 0.34 0.29 0.38 0.32 0.43 0.57 0.46 0.29 0.20 0.19 0.14 0.10 0.07 0.05 0.04 0.03
0.01 0.01 0.01 0.02 0.01 0.01 0.01 0.00 0.02 0.02 0.04 0.08 0.12 0.18 0.24 0.32 0.45 0.58 0.72 0.74 0.55 0.43 0.42 0.35 0.37 0.30 0.30 0.42 0.43 0.33 0.21 0.15 0.12 0.10 0.06 0.04 0.03 0.02
0.01 0.01 0.00 0.01 0.00 0.00 0.00 0.00 0.00 0.00 0.01 0.03 0.06 0.12 0.19 0.28 0.38 0.52 0.70 0.79 0.75 0.56 0.41 0.33 0.31 0.25 0.19 0.19 0.27 0.28 0.21 0.14 0.09 0.07 0.06 0.04 0.03 0.02
0.00 0.01 0.00 0.00 0.00 0.00 0.00 0.00 0.00 0.00 0.00 0.01 0.04 0.08 0.16 0.24 0.30 0.35 0.49 0.68 0.76 0.70 0.56 0.46 0.37 0.28 0.20 0.14 0.13 0.16 0.17 0.17 0.13 0.09 0.07 0.05 0.04 0.02
0.00 0.00 0.00 0.00 0.00 0.00 0.00 0.00 0.00 0.00 0.00 0.00 0.01 0.03 0.07 0.12 0.20 0.29 0.35 0.49 0.62 0.72 0.71 0.66 0.63 0.49 0.36 0.24 0.14 0.12 0.11 0.12 0.11 0.09 0.07 0.06 0.04 0.03
0.00 0.00 0.00 0.00 0.00 0.00 0.00 0.00 0.00 0.00 0.00 0.00 0.00 0.01 0.02 0.06 0.12 0.21 0.32 0.40 0.49 0.59 0.68 0.74 0.72 0.62 0.49 0.39 0.29 0.20 0.13 0.10 0.08 0.06 0.05 0.04 0.03 0.02
0.00 0.00 0.00 0.00 0.00 0.00 0.00 0.00 0.00 0.00 0.00 0.00 0.00 0.00 0.01 0.03 0.07 0.12 0.21 0.32 0.42 0.46 0.48 0.55 0.60 0.57 0.55 0.55 0.42 0.26 0.15 0.11 0.10 0.08 0.05 0.04 0.03 0.02
0.00 0.00 0.00 0.00 0.00 0.00 0.00 0.00 0.00 0.00 0.00 0.00 0.00 0.00 0.00 0.01 0.03 0.06 0.11 0.20 0.31 0.38 0.40 0.40 0.40 0.41 0.39 0.43 0.45 0.30 0.17 0.10 0.07 0.06 0.05 0.03 0.02 0.01
0.00 0.00 0.00 0.00 0.00 0.00 0.00 0.00 0.00 0.00 0.00 0.00 0.00 0.00 0.00 0.00 0.01 0.02 0.05 0.10 0.18 0.25 0.29 0.31 0.33 0.34 0.29 0.20 0.17 0.20 0.17 0.10 0.05 0.03 0.02 0.01 0.01 0.00
0.00 0.00 0.00 0.00 0.00 0.00 0.00 0.00 0.00 0.00 0.00 0.00 0.00 0.00 0.00 0.00 0.00 0.00 0.02 0.04 0.08 0.13 0.18 0.20 0.23 0.24 0.23 0.16 0.11 0.08 0.06 0.06 0.04 0.02 0.01 0.00 0.00 0.00
0.00 0.00 0.00 0.00 0.00 0.00 0.00 0.00 0.00 0.00 0.00 0.00 0.00 0.00 0.00 0.00 0.00 0.00 0.00 0.01 0.02 0.05 0.09 0.11 0.11 0.11 0.14 0.14 0.13 0.09 0.04 0.02 0.01 0.01 0.00 0.00 0.00 0.00
0.00 0.00 0.00 0.00 0.00 0.00 0.00 0.00 0.00 0.00 0.00 0.00 0.00 0.00 0.00 0.00 0.00 0.00 0.00 0.00 0.00 0.01 0.02 0.04 0.05 0.04 0.04 0.05 0.05 0.04 0.03 0.01 0.01 0.00 0.00 0.00 0.00 0.00